STARLINK-11678, 64326

Orbit data source: Space-Track

STARLINK-11678, 64326 is a payload satellite owned by SpaceX/Seattle (US) in LEO that was launched on Tue, 10 Jun 2025 UTC via an FALCON 9 launch vehicle from the Air Force Eastern Test Range (AFETR). Payload-class satellites include a variety of spacecraft equipped with specific instruments for various scientific and technological missions. These include communications satellites like Starlink; space stations such as the ISS; scientific satellites like the Hubble; Earth observation satellites from companies like Planet Labs, Umbra, and HawkEye 360; GPS; miniature CubeSats for education and research; and military/defense satellites.

Loading next visibility...
Identifier
64326, 2025-124K
Orbit
LEO
Last TLE update
10 hours ago
Origin
Manufacturer
SpaceX/Seattle
Mission
Operational spacecraft
Bus & Motor
STARLINK V2M, Unknown motor
Mass
730 kg wet, ~700 kg dry
Launch date (UTC)
2025-06-10 (3 weeks ago)
Launch vehicle
FALCON 9
Launch site
Air Force Eastern Test Range (AFETR)
Object type
Payload
Rocket body
Debris
Shape & HBR
Unknown
Radar Cross Section
Large (>1 m²)

Expand to show TLE details & history

TLE from 10 hours ago
0 STARLINK-11678
1 64326U 25124K   25182.16668981 -.00023330  00000-0 -13145-3 0  9998
2 64326  43.0021 105.6522 0001235 282.9984  43.5555 15.77875644  4204
Epoch: 2025-07-01T04:00Z
TLE epoch observation values (Epoch: 2025-07-01T04:00:01.999Z)
Latitude
-22.23891°
Longitude
100.3304°
Altitude
341.024 km
Speed
7.705 km/s
True Right ascension
05h 19m 13s
True Declination
-22° 06' 40"
Sunlit
Object was in daylight at epoch
Visualization orbit readout
Latitude
35.99637°
Longitude
174.53081°
Altitude
338.703 km
Speed
7.711 km/s
Apparent Right ascension
11h 37m 54s
Apparent Declination
0° 51' 28"
Sunlit
Object is in daylight
Visualization observer readout
Local Sidereal Time
01:09:20
Azimuth
33.82° NE
Elevation
-45.749°
Doppler factor
1
Orbital elements
Apogee altitude
339.277 km
Perigee altitude
337.618 km
Semi-major axis
6,716.585 km
Eccentricity
0.00012
Inclination
43.0021°
RAAN
105.6522°
Arg. of periapsis
282.9984°
True anomaly
Unknown
Mean anomaly
43.5555°
Eccentric anomaly
Unknown
Mean motion
3.94294 °/min
Orbital period
91.3 mins
BSTAR
-0.00013145
Loading maneuver chart data...
Loading SW <> Apogee altitude chart data...
Loading historical data...
Loading historical data...
Loading historical data...
Loading historical data...
Loading historical data...
Loading historical data...
Loading historical data...

STARLINK-11678 Visibility forecast

Observer location: undefined°, undefined°

Span
Click to sort rows by Start time (UTC) header in descending order
Start Az.
Max El. time (UTC)
Max El. Az.
Max El.
End time (UTC)
End Az.
4 mins2025-07-01 22:36:23.371Z224.452° SW2025-07-01 22:38:23.371Z146.182° SSE35.835°2025-07-01 22:40:23.371Z83.636° E
4 mins2025-07-02 00:12:23.371Z284.336° WNW2025-07-02 00:14:23.371Z24.717° NE34.232°2025-07-02 00:16:23.371Z66.727° ENE
4 mins2025-07-02 01:48:23.371Z302.521° NW2025-07-02 01:49:23.371Z333.282° NNW34.288°2025-07-02 01:52:23.371Z85.264° E
|